This demonstration page uses our WeatherBlox Daily Observations layout. Learn more.

Left ArrowRight Arrow

44.8408, -93.29828

Hourly Observations for July 4, 2019

Temp ( °F °C ) Dew Point ( °F °C ) Humidity (%) Winds ( mph kmh ) Pressure ( in mb ) Visibility ( mi km ) Precip ( " mm )
12:53 am 00:53 Partly Cloudy 74 23.3 68 20 82 82 SSE 5 7 29.85 1011 10 16 0.00 0.00
1:53 am 01:53 Mostly Clear 75 23.9 68 20 79 79 S 10 17 29.83 1010 10 16 0.00 0.00
2:53 am 02:53 Clear 74 23.3 69 20.6 85 85 S 5 7 29.85 1011 10 16 0.00 0.00
3:53 am 03:53 Clear 72 22.2 69 20.6 91 91 ESE 5 7 29.81 1010 10 16 0.00 0.00
4:53 am 04:53 Mostly Cloudy 72 22.2 69 20.6 91 91 ESE 7 11 29.83 1010 10 16 0.00 0.00
5:29 am 05:29 Mostly Cloudy 71 21.7 69 20.6 94 94 SE 8 13 29.83 1010 10 16 0.00 0.00
5:38 am 05:38 Mostly Cloudy 71 21.7 69 20.6 94 94 SE 8 13 29.82 1010 10 16 0.00 0.00
5:53 am 05:53 Cloudy 71 21.7 69 20.6 94 94 SE 7 11 29.84 1011 9 14 0.00 0.00
6:27 am 06:27 Cloudy 72 22.2 69 20.6 91 91 SSE 5 7 29.83 1010 9 14 0.00 0.00
6:53 am 06:53 Cloudy 72 22.2 69 20.6 91 91 SSE 7 11 29.85 1011 10 16 0.00 0.00
7:53 am 07:53 Cloudy 73 22.8 69 20.6 87 87 SE 6 9 29.84 1011 10 16 0.00 0.00
8:53 am 08:53 Mostly Cloudy 77 25 69 20.6 77 77 SE 7 11 29.84 1010 10 16 0.00 0.00
9:53 am 09:53 Mostly Cloudy 80 26.7 70 21.1 71 71 E 10 17 29.81 1010 10 16 0.00 0.00
10:53 am 10:53 Cloudy 80 26.7 69 20.6 69 69 S 6 9 29.85 1011 10 16 0.00 0.00
11:26 am 11:26 Cloudy 82 27.8 69 20.6 65 65 undefined N/A 29.81 1010 10 16 0.00 0.00
11:35 am 11:35 Cloudy 81 27.2 69 20.6 67 67 VRB 3 6 29.82 1010 10 16 0.00 0.00
11:53 am 11:53 Cloudy 82 27.8 69 20.6 65 65 SSW 8 13 29.84 1011 10 16 0.00 0.00
12:53 pm 12:53 Mostly Cloudy with Light Rain 78 25.6 71 21.7 79 79 SW 10 17 29.86 1011 10 16 0.00 0.03
1:53 pm 13:53 Cloudy 80 26.7 72 22.2 76 76 SW 9 15 29.84 1011 10 16 0.04 1.02
2:31 pm 14:31 Cloudy with Light Rain 78 25.6 71 21.7 79 79 WNW 20 31 29.81 1010 10 16 0.02 0.51
2:41 pm 14:41 Cloudy with Light Rain 74 23.3 69 20.6 85 85 WNW 13 20 29.83 1010 4 6 0.11 2.79
2:53 pm 14:53 Mostly Cloudy with Light Rain 76 24.4 70 21.1 82 82 W 12 19 29.84 1011 7 11 0.11 2.79
3:53 pm 15:53 Mostly Cloudy 81 27.2 69 20.6 67 67 W 8 13 29.83 1010 10 16 0.00 0.03
4:53 pm 16:53 Mostly Cloudy 84 28.9 67 19.4 57 57 W 10 17 29.85 1011 10 16 0.00 0.00
5:53 pm 17:53 Mostly Cloudy 81 27.2 68 20 65 65 NW 14 22 29.87 1011 10 16 0.00 0.00
6:53 pm 18:53 Mostly Cloudy 79 26.1 67 19.4 67 67 NW 9 15 29.89 1012 10 16 0.00 0.00
7:53 pm 19:53 Mostly Cloudy 78 25.6 67 19.4 69 69 NNW 9 15 29.91 1013 10 16 0.00 0.00
8:53 pm 20:53 Mostly Cloudy 77 25 66 18.9 69 69 NNW 8 13 29.91 1013 10 16 0.00 0.00
9:53 pm 21:53 Partly Cloudy 75 23.9 66 18.9 74 74 VRB 6 9 29.93 1014 10 16 0.00 0.00
10:53 pm 22:53 Mostly Clear 73 22.8 66 18.9 79 79 N 3 6 29.95 1014 7 11 0.00 0.00
11:53 pm 23:53 Mostly Clear 73 22.8 66 18.9 79 79 NNE 5 7 29.95 1014 8 13 0.00 0.00

Powered by AerisWeather